Date String (YYYY-MM-DD hh:mm:ss) UTC,Instrument flags,Ambient pressure (hPa),Sample flow (lpm),Bypass flow (lpm),Sample temperature (°C),Ambient temperature (°C),ASC tube jacket temperature (°C),LED temperature (°C),Box temperature (°C),Sample RH (%),Span deviation,Mass concentration (μg/m³),Mass concentration (μg/m³),Mass concentration (μg/m³)
DateTimeUTC,F1_M11,P_M11,Q1_M11,Q2_M11,T1_M11,T2_M11,T3_M11,T4_M11,T5_M11,U1_M11,ZSPAN_M11,X0_M11,X2_M11,X1_M11
2022-11-21 00:00:00,,0827.9,5.00,0.00,27.4,25.7,00.0,36.5,29.1,06.0,0000.0,0008.77,0006.16,0005.90
2022-11-21 00:01:00,,0827.9,5.00,0.00,27.4,25.7,00.0,36.5,29.1,06.0,0000.0,0008.72,0006.14,0005.90
2022-11-21 00:02:00,,0827.8,5.00,0.00,27.4,25.6,00.0,36.4,29.0,05.9,0000.0,0008.70,0006.11,0005.88
2022-11-21 00:03:00,,0827.8,4.99,0.00,27.4,25.6,00.0,36.4,29.0,06.1,0000.0,0008.64,0006.05,0005.82
2022-11-21 00:04:00,,0827.9,5.00,0.00,27.3,25.6,00.0,36.4,29.0,06.1,0000.0,0008.54,0005.94,0005.71
2022-11-21 00:05:00,,0827.9,5.02,0.00,27.3,25.5,00.0,36.4,29.0,06.1,0000.0,0008.41,0005.81,0005.58
2022-11-21 00:06:00,,0827.9,5.00,0.00,27.3,25.5,00.0,36.4,28.9,05.9,0000.0,0008.29,0005.68,0005.45
2022-11-21 00:07:00,,0827.9,4.99,0.00,27.3,25.4,00.0,36.4,29.0,05.7,0000.0,0008.19,0005.54,0005.30
2022-11-21 00:08:00,,0828.0,5.00,0.00,27.2,25.4,00.0,36.3,29.0,05.6,0000.0,0008.22,0005.41,0005.15
2022-11-21 00:09:00,,0828.0,5.01,0.00,27.2,25.4,00.0,36.3,29.0,05.6,0000.0,0007.81,0005.26,0004.98
2022-11-21 00:10:00,,0828.0,5.01,0.00,27.2,25.3,00.0,36.3,29.0,05.8,0000.0,0007.52,0005.09,0004.82
2022-11-21 00:11:00,,0828.0,5.01,0.00,27.2,25.3,00.0,36.3,28.9,05.8,0000.0,0007.34,0004.90,0004.62
2022-11-21 00:12:00,,0828.1,5.00,0.00,27.2,25.3,00.0,36.3,28.9,05.8,0000.0,0007.09,0004.73,0004.45
2022-11-21 00:13:00,,0828.0,5.00,0.00,27.1,25.3,00.0,36.2,28.9,05.8,0000.0,0006.81,0004.56,0004.28
2022-11-21 00:14:00,,0828.0,4.99,0.00,27.1,25.2,00.0,36.2,28.9,05.8,0000.0,0006.62,0004.44,0004.15
2022-11-21 00:15:00,,0828.0,5.00,0.00,27.1,25.2,00.0,36.2,28.8,05.9,0000.0,0006.55,0004.34,0004.05
2022-11-21 00:16:00,,0828.0,5.00,0.00,27.1,25.2,00.0,36.2,28.8,05.9,0000.0,0006.35,0004.23,0003.95
2022-11-21 00:17:00,,0827.9,5.01,0.00,27.0,25.2,00.0,36.1,28.8,05.9,0000.0,0006.28,0004.12,0003.84
2022-11-21 00:18:00,,0828.0,5.01,0.00,27.0,25.2,00.0,36.1,28.7,05.8,0000.0,0006.02,0004.01,0003.76
2022-11-21 00:19:00,,0828.0,4.99,0.00,27.0,25.2,00.0,36.1,28.7,05.9,0000.0,0005.56,0003.92,0003.68
2022-11-21 00:20:00,,0828.0,4.99,0.00,27.0,25.1,00.0,36.1,28.6,05.9,0000.0,0005.46,0003.87,0003.64
2022-11-21 00:21:00,,0828.1,4.99,0.00,26.9,25.1,00.0,36.0,28.6,05.9,0000.0,0005.33,0003.81,0003.60
2022-11-21 00:22:00,,0828.0,5.00,0.00,26.9,25.0,00.0,36.0,28.6,05.8,0000.0,0005.26,0003.79,0003.60
2022-11-21 00:23:00,,0828.0,5.00,0.00,26.9,25.0,00.0,36.0,28.6,05.8,0000.0,0005.24,0003.79,0003.60
2022-11-21 00:24:00,,0828.0,5.00,0.00,26.9,25.0,00.0,36.0,28.6,05.8,0000.0,0005.48,0003.79,0003.61
2022-11-21 00:25:00,,0828.0,5.00,0.00,26.9,25.0,00.0,36.0,28.5,05.8,0000.0,0006.35,0003.79,0003.63
2022-11-21 00:26:00,,0828.0,5.00,0.00,26.8,25.0,00.0,35.9,28.5,05.8,0000.0,0006.27,0003.81,0003.65
2022-11-21 00:27:00,,0828.1,5.00,0.00,26.8,24.9,00.0,35.9,28.5,05.8,0000.0,0006.34,0003.84,0003.69
2022-11-21 00:28:00,,0828.1,5.00,0.00,26.8,24.9,00.0,35.9,28.5,05.9,0000.0,0007.06,0003.88,0003.73
2022-11-21 00:29:00,,0828.0,5.00,0.00,26.8,24.9,00.0,35.9,28.5,05.9,0000.0,0007.59,0003.95,0003.79
2022-11-21 00:30:00,,0828.1,4.99,0.00,26.7,24.9,00.0,35.8,28.5,05.9,0000.0,0007.63,0004.00,0003.85
2022-11-21 00:31:00,,0828.1,5.00,0.00,26.7,24.9,00.0,35.8,28.5,05.9,0000.0,0007.78,0004.05,0003.91
2022-11-21 00:32:00,,0828.1,5.00,0.00,26.7,24.9,00.0,35.8,28.4,06.0,0000.0,0007.87,0004.10,0003.95
2022-11-21 00:33:00,,0828.1,4.99,0.00,26.7,24.9,00.0,35.8,28.5,06.0,0000.0,0007.95,0004.14,0003.96
2022-11-21 00:34:00,,0828.1,5.00,0.00,26.7,24.9,00.0,35.7,28.4,06.0,0000.0,0008.00,0004.16,0003.97
2022-11-21 00:35:00,,0828.1,5.00,0.00,26.7,24.8,00.0,35.7,28.4,06.0,0000.0,0007.91,0004.23,0004.01
2022-11-21 00:36:00,,0828.1,5.00,0.00,26.6,24.8,00.0,35.7,28.4,06.0,0000.0,0007.51,0004.27,0004.04
2022-11-21 00:37:00,,0828.1,5.00,0.00,26.6,24.8,00.0,35.7,28.3,06.0,0000.0,0007.85,0004.34,0004.10
2022-11-21 00:38:00,,0828.2,5.00,0.00,26.6,24.7,00.0,35.7,28.3,06.1,0000.0,0007.97,0004.42,0004.16
2022-11-21 00:39:00,,0828.2,5.00,0.00,26.6,24.7,00.0,35.7,28.3,06.1,0000.0,0007.50,0004.48,0004.22
2022-11-21 00:40:00,,0828.2,5.01,0.00,26.5,24.7,00.0,35.6,28.3,06.2,0000.0,0007.28,0004.52,0004.26
2022-11-21 00:41:00,,0828.2,5.00,0.00,26.5,24.7,00.0,35.6,28.3,06.2,0000.0,0007.49,0004.56,0004.29
2022-11-21 00:42:00,,0828.2,5.01,0.00,26.5,24.6,00.0,35.6,28.3,06.2,0000.0,0007.50,0004.61,0004.33
2022-11-21 00:43:00,,0828.2,5.00,0.00,26.5,24.6,00.0,35.6,28.2,06.2,0000.0,0007.53,0004.66,0004.39
2022-11-21 00:44:00,,0828.2,5.00,0.00,26.5,24.6,00.0,35.5,28.2,06.2,0000.0,0007.63,0004.74,0004.48
2022-11-21 00:45:00,,0828.2,5.00,0.00,26.4,24.6,00.0,35.5,28.2,06.2,0000.0,0007.72,0004.81,0004.55
2022-11-21 00:46:00,,0828.1,5.00,0.00,26.4,24.6,00.0,35.5,28.2,06.2,0000.0,0007.65,0004.80,0004.57
2022-11-21 00:47:00,,0828.1,5.00,0.00,26.4,24.6,00.0,35.5,28.1,06.2,0000.0,0007.59,0004.80,0004.59
2022-11-21 00:48:00,,0828.1,5.00,0.00,26.4,24.6,00.0,35.5,28.1,06.2,0000.0,0007.31,0004.82,0004.60
2022-11-21 00:49:00,,0828.1,5.00,0.00,26.4,24.6,00.0,35.4,28.2,06.2,0000.0,0007.44,0004.86,0004.63
2022-11-21 00:50:00,,0828.2,5.01,0.00,26.4,24.6,00.0,35.4,28.2,06.3,0000.0,0007.61,0004.90,0004.66
2022-11-21 00:51:00,,0828.2,5.01,0.00,26.3,24.6,00.0,35.4,28.1,06.3,0000.0,0007.63,0004.94,0004.69
2022-11-21 00:52:00,,0828.1,5.00,0.00,26.3,24.6,00.0,35.4,28.1,06.3,0000.0,0007.54,0004.98,0004.74
2022-11-21 00:53:00,,0828.1,5.00,0.00,26.3,24.5,00.0,35.4,28.1,06.4,0000.0,0007.49,0005.02,0004.79
2022-11-21 00:54:00,,0828.2,5.00,0.00,26.3,24.5,00.0,35.3,28.0,06.4,0000.0,0007.52,0005.04,0004.81
2022-11-21 00:55:00,,0828.2,5.00,0.00,26.3,24.5,00.0,35.3,28.0,06.4,0000.0,0007.44,0005.03,0004.81
2022-11-21 00:56:00,,0828.2,5.00,0.00,26.2,24.4,00.0,35.3,28.0,06.4,0000.0,0007.78,0005.03,0004.81
2022-11-21 00:57:00,,0828.2,5.00,0.00,26.2,24.4,00.0,35.3,28.0,06.4,0000.0,0007.96,0005.05,0004.84
2022-11-21 00:58:00,,0828.2,5.00,0.00,26.2,24.4,00.0,35.3,28.0,06.4,0000.0,0007.99,0005.08,0004.86
2022-11-21 00:59:00,,0828.1,5.00,0.00,26.2,24.4,00.0,35.3,28.0,06.4,0000.0,0007.97,0005.07,0004.86
